Weather History for Chetumal, Mexico

Change the Weather History Date:

Sunday, February 3, 2013

  Actual Average Record
Temperature  
Mean Temperature 78 °F -  
Max Temperature 86 °F 82 °F 89 °F (2007)
Min Temperature 69 °F 69 °F 62 °F (1997)
Cooling Degree Days 12    
Growing Degree Days 28 (Base 50)    
Moisture  
Dew Point 70 °F    
Average Humidity 77    
Maximum Humidity 96    
Minimum Humidity 56    
Precipitation  
Precipitation 0.04 in - - ()
Sea Level Pressure  
Sea Level Pressure 30.04 in    
Wind  
Wind Speed 4 mph ()    
Max Wind Speed 12 mph    
Max Gust Speed -    
Visibility 6.2 miles    
Events Rain    
Averages and records for this station are not official NWS values.
T = Trace of Precipitation, MM = Missing Value Source: Averaged Metar Reports

Daily Weather History Graph

Daily Weather History Graph

Search for Another Location

Airport:

Trip Planner

Search our weather history database for the weather conditions in past years. The results will help you decide how hot, cold, wet, or windy it might be!

Date:

Astronomy

Feb. 03, 2013 Rise Set
Actual Time 6:25 AM CST 5:48 PM CST
Civil Twilight 6:03 AM CST 6:11 PM CST
Nautical Twilight 5:37 AM CST 6:37 PM CST
Astronomical Twilight 5:11 AM CST 7:03 PM CST
Moon No Moon Rise 11:30 AM CST (2/3)
Length of Visible Light 12h 07m
Length of Day
11h 22m
Waning Gibbous, 48% of the Moon is Illuminated
Feb 3
Waning Gibbous
Feb 10
New
Feb 17
First Quarter
Feb 25
Full
Mar 4
Last Quarter

Hourly Weather History & Observations

Time (CST) Temp. Heat Index Dew Point Humidity Pressure Visibility Wind Dir Wind Speed Gust Speed Precip Events Conditions
2:50 AM 72 °F - 71 °F 94% 30.02 in 5 mi NNW 4.5 mph - -   Partly Cloudy
5:50 AM 71 °F - 70 °F 96% 30.07 in 5 mi North 2.2 mph - -   Partly Cloudy
6:45 AM 71.6 °F - 64.4 °F 78% 30.08 in 4.0 mi Calm Calm - N/A   Haze
7:45 AM 71.6 °F - 64.4 °F 78% 30.10 in 7.0 mi Calm Calm - N/A   Overcast
8:45 AM 71.6 °F - 64.4 °F 78% 30.13 in 4.0 mi Calm Calm - N/A Rain Rain
8:50 AM 74 °F - 71 °F 88% 29.83 in 6 mi East 6.7 mph - - Rain Light Rain Showers
9:40 AM 73.4 °F - 64.4 °F 73% 30.13 in 7.0 mi Calm Calm - N/A   Overcast
10:44 AM 75.2 °F - 68.0 °F 78% 30.11 in 7.0 mi NNE 9.2 mph - N/A   Overcast
11:45 AM 80.6 °F 83.9 °F 69.8 °F 70% 30.08 in 7.0 mi ENE 11.5 mph - N/A   Overcast
11:50 AM 81 °F - 70 °F 61% 30.08 in 6 mi ENE 4.5 mph - - Rain Light Rain Showers
12:40 PM 82.4 °F 88.2 °F 73.4 °F 74% 30.04 in 7.0 mi North 6.9 mph - N/A   Mostly Cloudy
1:40 PM 82.4 °F 88.2 °F 73.4 °F 74% 30.01 in 7.0 mi North 9.2 mph - N/A   Mostly Cloudy
2:45 PM 84 °F - 71 °F 56% 30.00 in 6 mi ENE 8.9 mph - -   Partly Cloudy
2:45 PM 82.4 °F 88.2 °F 73.4 °F 74% 29.99 in 7.0 mi North 9.2 mph - N/A   Mostly Cloudy
3:45 PM 82.4 °F 88.2 °F 73.4 °F 74% 30.00 in 7.0 mi NNE 9.2 mph - N/A   Mostly Cloudy
4:45 PM 80.6 °F 85.4 °F 73.4 °F 79% 30.00 in 7.0 mi NNE 9.2 mph - N/A   Mostly Cloudy
5:45 PM 77 °F - 69 °F 71% 30.03 in 6 mi NE 6.7 mph - -   Mostly Cloudy
5:45 PM 80.6 °F 85.4 °F 73.4 °F 79% 30.00 in 7.0 mi NNE 9.2 mph - N/A   Mostly Cloudy
6:51 PM 80.6 °F 86.2 °F 75.2 °F 84% 30.02 in 7.0 mi Calm Calm - N/A   Mostly Cloudy
7:51 PM 80.6 °F 86.2 °F 75.2 °F 84% 30.04 in 7.0 mi Calm Calm - N/A   Mostly Cloudy
8:50 PM 74 °F - 68 °F 78% 30.06 in 5 mi NE 4.5 mph - -   Scattered Clouds
11:50 PM 73 °F - 69 °F 82% 30.04 in 5 mi North 2.2 mph - -   Mostly Cloudy